Time,TemperatureF,DewpointF,PressureIn,WindDirection,WindDirectionDegrees,WindSpeedMPH,WindSpeedGustMPH,Humidity,HourlyPrecipIn,Conditions,Clouds,dailyrainin,SoftwareType,DateUTC
2013-02-08 00:01:00,28.6,-99.9,30.06,ESE,106,0.0,3.6,-999,0.00,,,-99.99,perl,2013-02-08 05:01:00,
2013-02-08 00:02:00,28.6,-99.9,30.06,ESE,108,1.6,3.6,-999,0.00,,,-99.99,perl,2013-02-08 05:02:00,
2013-02-08 00:03:00,28.8,-99.9,30.06,East,100,3.4,4.5,-999,0.00,,,-99.99,perl,2013-02-08 05:03:00,
2013-02-08 00:05:00,28.8,-99.9,30.06,ESE,102,1.1,4.5,-999,0.00,,,-99.99,perl,2013-02-08 05:05:00,
2013-02-08 00:10:00,28.9,-99.9,30.06,SE,133,0.9,0.0,-999,0.00,,,-99.99,perl,2013-02-08 05:10:00,
2013-02-08 00:15:00,29.1,-99.9,30.06,ESE,116,0.0,4.9,-999,0.00,,,-99.99,perl,2013-02-08 05:15:00,
2013-02-08 00:20:00,29.3,-99.9,30.06,ESE,108,0.0,2.7,-999,0.00,,,-99.99,perl,2013-02-08 05:20:00,
2013-02-08 00:25:00,29.5,-99.9,30.06,ESE,102,0.0,0.0,-999,0.00,,,-99.99,perl,2013-02-08 05:25:00,
2013-02-08 00:30:00,29.7,-99.9,30.06,SE,133,0.0,0.0,-999,0.00,,,-99.99,perl,2013-02-08 05:30:00,
2013-02-08 00:35:00,29.8,-99.9,30.06,ESE,104,0.0,2.7,-999,0.00,,,-99.99,perl,2013-02-08 05:35:00,
2013-02-08 00:40:00,30.2,-99.9,30.06,ESE,112,0.0,0.0,-999,0.00,,,-99.99,perl,2013-02-08 05:40:00,
2013-02-08 00:45:00,30.2,-99.9,30.06,ESE,111,0.0,0.0,-999,0.00,,,-99.99,perl,2013-02-08 05:45:00,
2013-02-08 00:50:00,30.2,-99.9,30.06,ESE,109,0.0,0.0,-999,0.00,,,-99.99,perl,2013-02-08 05:50:00,
2013-02-08 00:55:00,30.4,-99.9,30.06,ESE,107,0.0,0.0,-999,0.00,,,-99.99,perl,2013-02-08 05:55:00,
2013-02-08 01:01:00,30.2,-99.9,30.03,SE,129,0.0,0.0,-999,0.00,,,-99.99,perl,2013-02-08 06:01:00,
2013-02-08 01:06:00,30.2,-99.9,30.03,East,101,0.0,0.0,-999,0.00,,,-99.99,perl,2013-02-08 06:06:00,
2013-02-08 01:11:00,30.2,-99.9,30.03,ESE,104,0.0,2.7,-999,0.00,,,-99.99,perl,2013-02-08 06:11:00,
2013-02-08 01:16:00,30.4,-99.9,30.03,ESE,105,0.0,0.0,-999,0.00,,,-99.99,perl,2013-02-08 06:16:00,
2013-02-08 01:21:00,30.6,-99.9,30.03,East,94,3.5,3.6,-999,0.00,,,-99.99,perl,2013-02-08 06:21:00,
2013-02-08 01:26:00,30.6,-99.9,30.03,East,96,2.9,2.9,-999,0.00,,,-99.99,perl,2013-02-08 06:26:00,
2013-02-08 01:31:00,30.7,-99.9,30.03,East,91,2.2,2.7,-999,0.00,,,-99.99,perl,2013-02-08 06:31:00,
2013-02-08 01:36:00,30.7,-99.9,30.03,ESE,104,3.1,3.1,-999,0.00,,,-99.99,perl,2013-02-08 06:36:00,
2013-02-08 01:41:00,30.7,-99.9,30.03,East,84,0.0,0.0,-999,0.00,,,-99.99,perl,2013-02-08 06:41:00,
2013-02-08 01:46:00,30.7,-99.9,30.03,East,83,0.0,0.0,-999,0.00,,,-99.99,perl,2013-02-08 06:46:00,
2013-02-08 01:51:00,30.9,-99.9,30.03,East,99,2.2,3.1,-999,0.00,,,-99.99,perl,2013-02-08 06:51:00,
2013-02-08 01:56:00,30.9,-99.9,30.03,East,96,2.3,3.6,-999,0.00,,,-99.99,perl,2013-02-08 06:56:00,
2013-02-08 02:01:00,31.1,-99.9,30.03,East,91,3.1,4.0,-999,0.00,,,-99.99,perl,2013-02-08 07:01:00,
2013-02-08 02:07:00,31.1,-99.9,30.03,East,90,2.8,2.8,-999,0.00,,,-99.99,perl,2013-02-08 07:07:00,
2013-02-08 02:13:00,31.1,-99.9,30.03,East,91,3.4,5.4,-999,0.00,,,-99.99,perl,2013-02-08 07:13:00,
2013-02-08 02:18:00,31.1,-99.9,30.03,ESE,109,3.4,5.4,-999,0.00,,,-99.99,perl,2013-02-08 07:18:00,
2013-02-08 02:24:00,31.1,-99.9,30.03,East,100,2.5,4.9,-999,0.00,,,-99.99,perl,2013-02-08 07:24:00,
2013-02-08 02:29:00,31.1,-99.9,30.00,East,100,2.7,4.9,-999,0.00,,,-99.99,perl,2013-02-08 07:29:00,
2013-02-08 02:34:00,31.1,-99.9,30.00,East,97,3.1,3.6,-999,0.00,,,-99.99,perl,2013-02-08 07:34:00,
2013-02-08 02:39:00,31.1,-99.9,30.00,East,98,2.5,3.1,-999,0.00,,,-99.99,perl,2013-02-08 07:39:00,
2013-02-08 02:44:00,31.1,-99.9,30.00,East,94,2.9,3.1,-999,0.00,,,-99.99,perl,2013-02-08 07:44:00,
2013-02-08 02:49:00,31.1,-99.9,30.00,East,91,3.0,4.0,-999,0.00,,,-99.99,perl,2013-02-08 07:49:00,
2013-02-08 02:54:00,30.9,-99.9,30.00,East,99,3.1,5.4,-999,0.00,,,-99.99,perl,2013-02-08 07:54:00,
2013-02-08 02:59:00,30.9,-99.9,30.00,East,95,3.6,4.0,-999,0.00,,,-99.99,perl,2013-02-08 07:59:00,
2013-02-08 03:04:00,30.9,-99.9,30.00,East,81,3.8,5.8,-999,0.00,,,-99.99,perl,2013-02-08 08:04:00,
2013-02-08 03:10:00,30.9,-99.9,30.00,ENE,62,3.9,5.4,-999,0.00,,,-99.99,perl,2013-02-08 08:10:00,
2013-02-08 03:15:00,30.9,-99.9,29.97,East,94,4.0,5.8,-999,0.00,,,-99.99,perl,2013-02-08 08:15:00,
2013-02-08 03:20:00,30.7,-99.9,29.97,East,89,3.8,4.0,-999,0.00,,,-99.99,perl,2013-02-08 08:20:00,
2013-02-08 03:25:00,30.7,-99.9,29.97,East,99,4.0,4.9,-999,0.00,,,-99.99,perl,2013-02-08 08:25:00,
2013-02-08 03:30:00,30.7,-99.9,29.97,ESE,112,4.1,5.4,-999,0.00,,,-99.99,perl,2013-02-08 08:30:00,
2013-02-08 03:35:00,30.7,-99.9,29.97,East,94,3.4,4.9,-999,0.00,,,-99.99,perl,2013-02-08 08:35:00,
2013-02-08 03:40:00,30.6,-99.9,29.97,East,96,4.4,7.2,-999,0.00,,,-99.99,perl,2013-02-08 08:40:00,
2013-02-08 03:45:00,30.7,-99.9,29.97,East,100,3.0,3.6,-999,0.00,,,-99.99,perl,2013-02-08 08:45:00,
2013-02-08 03:50:00,30.7,-99.9,29.97,ESE,103,3.8,4.0,-999,0.00,,,-99.99,perl,2013-02-08 08:50:00,
2013-02-08 03:55:00,30.7,-99.9,29.97,East,85,3.3,3.3,-999,0.00,,,-99.99,perl,2013-02-08 08:55:00,
2013-02-08 04:00:00,30.9,-99.9,29.97,ESE,111,4.0,5.8,-999,0.00,,,-99.99,perl,2013-02-08 09:00:00,
2013-02-08 04:05:00,30.9,-99.9,29.97,East,87,3.9,5.4,-999,0.00,,,-99.99,perl,2013-02-08 09:05:00,
2013-02-08 04:11:00,30.9,-99.9,29.97,East,96,2.7,3.6,-999,0.00,,,-99.99,perl,2013-02-08 09:11:00,
2013-02-08 04:16:00,30.9,-99.9,29.94,East,91,3.6,3.6,-999,0.00,,,-99.99,perl,2013-02-08 09:16:00,
2013-02-08 04:21:00,31.1,-99.9,29.94,East,96,4.3,5.8,-999,0.00,,,-99.99,perl,2013-02-08 09:21:00,
2013-02-08 04:27:00,31.1,-99.9,29.94,East,88,3.4,6.3,-999,0.00,,,-99.99,perl,2013-02-08 09:27:00,
2013-02-08 04:32:00,31.3,-99.9,29.94,ESE,109,1.6,3.1,-999,0.00,,,-99.99,perl,2013-02-08 09:32:00,
2013-02-08 04:37:00,31.3,-99.9,29.94,East,86,3.2,4.0,-999,0.00,,,-99.99,perl,2013-02-08 09:37:00,
2013-02-08 04:43:00,31.5,-99.9,29.94,East,100,2.9,3.6,-999,0.00,,,-99.99,perl,2013-02-08 09:43:00,
2013-02-08 04:49:00,31.5,-99.9,29.94,East,81,3.4,4.0,-999,0.00,,,-99.99,perl,2013-02-08 09:49:00,
2013-02-08 04:54:00,31.6,-99.9,29.94,East,89,2.8,5.4,-999,0.00,,,-99.99,perl,2013-02-08 09:54:00,
2013-02-08 05:01:00,31.6,-99.9,29.94,East,99,3.8,4.9,-999,0.00,,,-99.99,perl,2013-02-08 10:01:00,
2013-02-08 05:06:00,31.8,-99.9,29.94,East,91,4.6,4.6,-999,0.00,,,-99.99,perl,2013-02-08 10:06:00,
2013-02-08 05:11:00,31.8,-99.9,29.94,East,96,3.1,4.0,-999,0.00,,,-99.99,perl,2013-02-08 10:11:00,
2013-02-08 05:16:00,31.8,-99.9,29.94,East,95,2.9,4.0,-999,0.00,,,-99.99,perl,2013-02-08 10:16:00,
2013-02-08 05:21:00,32.0,-99.9,29.94,ENE,78,0.0,3.6,-999,0.00,,,-99.99,perl,2013-02-08 10:21:00,
2013-02-08 05:26:00,32.0,-99.9,29.94,East,85,0.7,0.0,-999,0.00,,,-99.99,perl,2013-02-08 10:26:00,
2013-02-08 05:31:00,31.8,-99.9,29.94,East,84,0.0,3.6,-999,0.00,,,-99.99,perl,2013-02-08 10:31:00,
2013-02-08 05:36:00,31.8,-99.9,29.94,East,92,3.7,4.5,-999,0.00,,,-99.99,perl,2013-02-08 10:36:00,
2013-02-08 05:41:00,31.8,-99.9,29.94,East,96,0.0,0.0,-999,0.00,,,-99.99,perl,2013-02-08 10:41:00,
2013-02-08 05:46:00,31.8,-99.9,29.91,East,93,3.4,4.0,-999,0.00,,,-99.99,perl,2013-02-08 10:46:00,
2013-02-08 05:52:00,31.8,-99.9,29.91,East,95,3.7,3.7,-999,0.00,,,-99.99,perl,2013-02-08 10:52:00,
2013-02-08 05:57:00,31.8,-99.9,29.91,ESE,107,3.3,5.4,-999,0.00,,,-99.99,perl,2013-02-08 10:57:00,
2013-02-08 06:02:00,31.8,-99.9,29.94,East,95,3.4,4.9,-999,0.00,,,-99.99,perl,2013-02-08 11:02:00,
2013-02-08 06:07:00,31.6,-99.9,29.94,ESE,104,0.0,4.9,-999,0.00,,,-99.99,perl,2013-02-08 11:07:00,
2013-02-08 06:12:00,31.6,-99.9,29.94,East,87,3.9,5.4,-999,0.00,,,-99.99,perl,2013-02-08 11:12:00,
2013-02-08 06:17:00,31.6,-99.9,29.91,SE,130,3.4,3.4,-999,0.00,,,-99.99,perl,2013-02-08 11:17:00,
2013-02-08 06:22:00,31.6,-99.9,29.91,ESE,106,2.8,4.0,-999,0.00,,,-99.99,perl,2013-02-08 11:22:00,
2013-02-08 06:27:00,31.6,-99.9,29.91,ESE,103,3.0,3.1,-999,0.00,,,-99.99,perl,2013-02-08 11:27:00,
2013-02-08 06:32:00,31.8,-99.9,29.91,ESE,116,3.8,4.9,-999,0.00,,,-99.99,perl,2013-02-08 11:32:00,
2013-02-08 06:37:00,31.8,-99.9,29.91,ESE,107,2.9,6.3,-999,0.00,,,-99.99,perl,2013-02-08 11:37:00,
2013-02-08 06:42:00,32.0,-99.9,29.91,ESE,110,2.5,4.9,-999,0.00,,,-99.99,perl,2013-02-08 11:42:00,
2013-02-08 06:47:00,32.0,-99.9,29.91,ESE,106,3.2,3.6,-999,0.00,,,-99.99,perl,2013-02-08 11:47:00,
2013-02-08 06:52:00,32.2,-99.9,29.91,ESE,110,2.9,3.6,-999,0.00,,,-99.99,perl,2013-02-08 11:52:00,
2013-02-08 06:57:00,32.2,-99.9,29.91,ESE,106,3.4,3.6,-999,0.00,,,-99.99,perl,2013-02-08 11:57:00,
2013-02-08 07:02:00,32.4,-99.9,29.91,ESE,109,2.7,4.0,-999,0.00,,,-99.99,perl,2013-02-08 12:02:00,
2013-02-08 07:07:00,32.5,-99.9,29.91,ESE,109,3.9,4.9,-999,0.00,,,-99.99,perl,2013-02-08 12:07:00,
2013-02-08 07:12:00,32.5,-99.9,29.91,ESE,105,3.8,4.9,-999,0.00,,,-99.99,perl,2013-02-08 12:12:00,
2013-02-08 07:17:00,32.7,-99.9,29.88,ESE,116,3.2,5.8,-999,0.00,,,-99.99,perl,2013-02-08 12:17:00,
2013-02-08 07:22:00,33.1,-99.9,29.88,ESE,118,3.1,4.0,-999,0.00,,,-99.99,perl,2013-02-08 12:22:00,
2013-02-08 07:27:00,33.3,-99.9,29.88,East,99,3.6,6.3,-999,0.00,,,-99.99,perl,2013-02-08 12:27:00,
2013-02-08 07:32:00,33.3,-99.9,29.88,East,101,3.6,4.0,-999,0.00,,,-99.99,perl,2013-02-08 12:32:00,
2013-02-08 07:37:00,33.3,-99.9,29.88,East,101,3.7,4.0,-999,0.00,,,-99.99,perl,2013-02-08 12:37:00,
2013-02-08 07:42:00,33.1,-99.9,29.88,ESE,105,3.1,5.4,-999,0.00,,,-99.99,perl,2013-02-08 12:42:00,
2013-02-08 07:47:00,33.1,-99.9,29.88,ESE,109,3.1,3.6,-999,0.00,,,-99.99,perl,2013-02-08 12:47:00,
2013-02-08 07:52:00,33.1,-99.9,29.88,East,100,3.8,4.9,-999,0.00,,,-99.99,perl,2013-02-08 12:52:00,
2013-02-08 07:58:00,33.1,-99.9,29.88,ESE,118,3.4,5.4,-999,0.00,,,-99.99,perl,2013-02-08 12:58:00,
2013-02-08 08:03:00,33.1,-99.9,29.88,ESE,117,3.6,5.4,-999,0.00,,,-99.99,perl,2013-02-08 13:03:00,
2013-02-08 08:08:00,33.1,-99.9,29.88,East,101,4.5,10.1,-999,0.00,,,-99.99,perl,2013-02-08 13:08:00,
2013-02-08 08:13:00,33.3,-99.9,29.88,ESE,109,5.3,8.7,-999,0.00,,,-99.99,perl,2013-02-08 13:13:00,
2013-02-08 08:18:00,33.3,-99.9,29.88,ESE,106,4.1,6.3,-999,0.00,,,-99.99,perl,2013-02-08 13:18:00,
2013-02-08 08:23:00,33.3,-99.9,29.88,East,96,4.9,5.4,-999,0.00,,,-99.99,perl,2013-02-08 13:23:00,
2013-02-08 08:28:00,33.4,-99.9,29.88,ESE,110,4.9,7.2,-999,0.00,,,-99.99,perl,2013-02-08 13:28:00,
2013-02-08 08:33:00,33.6,-99.9,29.85,ESE,123,5.1,6.3,-999,0.00,,,-99.99,perl,2013-02-08 13:33:00,
2013-02-08 08:38:00,33.8,-99.9,29.85,ESE,123,3.4,4.0,-999,0.00,,,-99.99,perl,2013-02-08 13:38:00,
2013-02-08 08:43:00,33.8,-99.9,29.85,SE,138,3.3,6.3,-999,0.00,,,-99.99,perl,2013-02-08 13:43:00,
2013-02-08 08:49:00,34.0,-99.9,29.85,ESE,109,3.8,4.0,-999,0.00,,,-99.99,perl,2013-02-08 13:49:00,
2013-02-08 08:54:00,34.0,-99.9,29.85,ESE,110,2.9,5.4,-999,0.00,,,-99.99,perl,2013-02-08 13:54:00,
2013-02-08 08:59:00,34.0,-99.9,29.85,ESE,112,2.4,4.0,-999,0.00,,,-99.99,perl,2013-02-08 13:59:00,
2013-02-08 09:04:00,33.8,-99.9,29.85,ESE,102,4.0,6.3,-999,0.00,,,-99.99,perl,2013-02-08 14:04:00,
2013-02-08 09:09:00,33.6,-99.9,29.85,ESE,108,4.0,4.0,-999,0.00,,,-99.99,perl,2013-02-08 14:09:00,
2013-02-08 09:15:00,33.4,-99.9,29.85,ESE,110,3.8,4.9,-999,0.00,,,-99.99,perl,2013-02-08 14:15:00,
2013-02-08 09:21:00,33.3,-99.9,29.85,ESE,115,3.9,4.0,-999,0.00,,,-99.99,perl,2013-02-08 14:21:00,
2013-02-08 09:26:00,33.3,-99.9,29.85,ESE,103,3.4,3.6,-999,0.00,,,-99.99,perl,2013-02-08 14:26:00,
2013-02-08 09:31:00,33.1,-99.9,29.85,ESE,108,2.8,4.0,-999,0.00,,,-99.99,perl,2013-02-08 14:31:00,
2013-02-08 09:36:00,33.1,-99.9,29.85,SE,127,3.4,4.0,-999,0.00,,,-99.99,perl,2013-02-08 14:36:00,
2013-02-08 09:41:00,33.1,-99.9,29.85,East,91,3.6,3.6,-999,0.00,,,-99.99,perl,2013-02-08 14:41:00,
2013-02-08 09:46:00,33.1,32.0,29.82,East,99,3.6,4.0,96,0.00,,,-99.99,perl,2013-02-08 14:46:00,
2013-02-08 09:51:00,33.1,32.0,29.82,East,97,3.8,4.0,96,0.00,,,-99.99,perl,2013-02-08 14:51:00,
2013-02-08 09:56:00,33.1,32.0,29.82,East,101,3.9,4.5,96,0.00,,,-99.99,perl,2013-02-08 14:56:00,
2013-02-08 10:01:00,33.1,32.0,29.82,East,95,2.9,3.6,96,0.00,,,-99.99,perl,2013-02-08 15:01:00,
2013-02-08 10:06:00,33.1,32.0,29.82,ESE,103,4.1,5.4,96,0.00,,,-99.99,perl,2013-02-08 15:06:00,
2013-02-08 10:11:00,33.1,32.0,29.82,ESE,106,2.9,3.1,96,0.00,,,-99.99,perl,2013-02-08 15:11:00,
2013-02-08 10:16:00,33.1,32.0,29.82,ESE,109,3.1,5.4,96,0.00,,,-99.99,perl,2013-02-08 15:16:00,
2013-02-08 10:21:00,33.1,32.0,29.82,ESE,106,2.7,2.7,96,0.00,,,-99.99,perl,2013-02-08 15:21:00,
2013-02-08 10:26:00,33.1,32.0,29.82,ESE,108,3.8,5.8,96,0.00,,,-99.99,perl,2013-02-08 15:26:00,
2013-02-08 10:31:00,33.1,33.8,29.82,SE,131,3.6,5.4,100,0.00,,,-99.99,perl,2013-02-08 15:31:00,
2013-02-08 10:36:00,33.1,33.8,29.82,East,96,3.1,4.0,100,0.00,,,-99.99,perl,2013-02-08 15:36:00,
2013-02-08 10:41:00,32.9,33.8,29.82,ESE,111,3.6,3.6,100,0.00,,,-99.99,perl,2013-02-08 15:41:00,
2013-02-08 10:46:00,32.9,33.8,29.82,ESE,117,3.4,3.4,100,0.00,,,-99.99,perl,2013-02-08 15:46:00,
2013-02-08 10:51:00,32.9,33.8,29.82,ESE,103,2.5,4.0,100,0.00,,,-99.99,perl,2013-02-08 15:51:00,
2013-02-08 10:56:00,32.9,33.8,29.82,ESE,109,0.0,0.0,100,0.00,,,-99.99,perl,2013-02-08 15:56:00,
2013-02-08 11:01:00,32.9,33.8,29.79,East,98,0.0,0.0,100,0.00,,,-99.99,perl,2013-02-08 16:01:00,
2013-02-08 11:06:00,32.9,33.8,29.79,East,82,0.0,0.0,100,0.00,,,-99.99,perl,2013-02-08 16:06:00,
2013-02-08 11:11:00,32.9,33.8,29.79,SE,132,0.0,0.0,100,0.00,,,-99.99,perl,2013-02-08 16:11:00,
2013-02-08 11:16:00,32.9,33.8,29.79,ESE,113,0.0,0.0,100,0.00,,,-99.99,perl,2013-02-08 16:16:00,
2013-02-08 11:21:00,32.9,33.8,29.79,East,87,0.0,0.0,100,0.00,,,-99.99,perl,2013-02-08 16:21:00,
2013-02-08 11:26:00,32.9,33.8,29.79,ENE,77,0.0,0.0,100,0.00,,,-99.99,perl,2013-02-08 16:26:00,
2013-02-08 11:31:00,32.9,33.8,29.79,East,95,0.0,0.0,100,0.00,,,-99.99,perl,2013-02-08 16:31:00,
2013-02-08 11:36:00,32.9,33.8,29.79,East,90,0.0,0.0,100,0.00,,,-99.99,perl,2013-02-08 16:36:00,
2013-02-08 11:41:00,32.9,33.8,29.79,East,82,0.0,0.0,100,0.00,,,-99.99,perl,2013-02-08 16:41:00,
2013-02-08 11:46:00,32.9,33.8,29.79,East,82,0.0,0.0,100,0.00,,,-99.99,perl,2013-02-08 16:46:00,
2013-02-08 11:51:00,33.1,33.8,29.79,East,81,0.0,0.0,100,0.00,,,-99.99,perl,2013-02-08 16:51:00,
2013-02-08 11:56:00,33.1,33.8,29.79,ENE,78,0.0,0.0,100,0.00,,,-99.99,perl,2013-02-08 16:56:00,
2013-02-08 12:01:00,33.1,33.8,29.79,ENE,68,0.0,0.0,100,0.00,,,-99.99,perl,2013-02-08 17:01:00,
2013-02-08 12:07:00,32.9,33.8,29.79,ENE,65,0.0,0.0,100,0.00,,,-99.99,perl,2013-02-08 17:07:00,
2013-02-08 12:12:00,32.9,33.8,29.79,ENE,61,0.0,0.0,100,0.00,,,-99.99,perl,2013-02-08 17:12:00,
2013-02-08 12:17:00,32.9,33.8,29.76,ENE,61,0.0,0.0,100,0.00,,,-99.99,perl,2013-02-08 17:17:00,
2013-02-08 12:22:00,32.9,33.8,29.76,ENE,59,0.0,0.0,100,0.00,,,-99.99,perl,2013-02-08 17:22:00,
2013-02-08 12:27:00,32.9,33.8,29.76,ENE,60,0.0,0.0,100,0.00,,,-99.99,perl,2013-02-08 17:27:00,
2013-02-08 12:33:00,32.9,33.8,29.76,ENE,59,0.0,0.0,100,0.00,,,-99.99,perl,2013-02-08 17:33:00,
2013-02-08 12:38:00,32.9,33.8,29.76,ENE,59,0.0,0.0,100,0.00,,,-99.99,perl,2013-02-08 17:38:00,
2013-02-08 12:43:00,32.9,33.8,29.76,NE,56,0.0,0.0,100,0.00,,,-99.99,perl,2013-02-08 17:43:00,
2013-02-08 12:48:00,32.9,33.8,29.76,ENE,57,0.0,0.0,100,0.00,,,-99.99,perl,2013-02-08 17:48:00,
2013-02-08 12:54:00,32.9,33.8,29.76,NE,56,0.0,0.0,100,0.00,,,-99.99,perl,2013-02-08 17:54:00,
2013-02-08 12:59:00,32.9,33.8,29.76,NE,54,0.0,0.0,100,0.00,,,-99.99,perl,2013-02-08 17:59:00,
2013-02-08 13:04:00,32.9,33.8,29.76,NE,54,0.0,0.0,100,0.00,,,-99.99,perl,2013-02-08 18:04:00,
2013-02-08 13:09:00,32.9,33.8,29.76,NE,54,0.0,0.0,100,0.00,,,-99.99,perl,2013-02-08 18:09:00,
2013-02-08 13:14:00,32.9,33.8,29.76,NE,53,0.0,0.0,100,0.00,,,-99.99,perl,2013-02-08 18:14:00,
2013-02-08 13:19:00,32.7,32.0,29.76,NE,52,0.0,0.0,98,0.00,,,-99.99,perl,2013-02-08 18:19:00,
2013-02-08 13:24:00,32.7,32.0,29.76,NE,54,0.0,0.0,98,0.00,,,-99.99,perl,2013-02-08 18:24:00,
2013-02-08 13:31:00,32.5,32.0,29.76,NE,52,0.0,0.0,99,0.00,,,-99.99,perl,2013-02-08 18:31:00,
2013-02-08 13:37:00,32.5,32.0,29.76,NE,52,0.0,0.0,99,0.00,,,-99.99,perl,2013-02-08 18:37:00,
2013-02-08 13:43:00,32.5,32.0,29.76,NE,53,0.0,0.0,99,0.00,,,-99.99,perl,2013-02-08 18:43:00,
2013-02-08 13:48:00,32.5,32.0,29.76,NE,53,0.0,0.0,99,0.00,,,-99.99,perl,2013-02-08 18:48:00,
2013-02-08 13:53:00,32.5,32.0,29.76,NE,55,0.0,0.0,99,0.00,,,-99.99,perl,2013-02-08 18:53:00,
2013-02-08 14:00:00,32.4,32.0,29.76,NE,55,0.0,0.0,99,0.00,,,-99.99,perl,2013-02-08 19:00:00,
2013-02-08 14:05:00,32.4,32.0,29.76,NE,55,0.0,0.0,99,0.00,,,-99.99,perl,2013-02-08 19:05:00,
2013-02-08 14:10:00,32.2,32.0,29.76,NE,55,0.0,0.0,99,0.00,,,-99.99,perl,2013-02-08 19:10:00,
2013-02-08 14:15:00,32.2,32.0,29.76,NE,55,0.0,0.0,99,0.00,,,-99.99,perl,2013-02-08 19:15:00,
2013-02-08 14:20:00,32.0,32.0,29.76,NE,55,0.0,0.0,100,0.00,,,-99.99,perl,2013-02-08 19:20:00,
2013-02-08 14:25:00,32.0,32.0,29.76,NE,56,0.0,0.0,100,0.00,,,-99.99,perl,2013-02-08 19:25:00,
2013-02-08 14:30:00,31.8,-99.9,29.76,NE,56,0.0,0.0,-999,0.00,,,-99.99,perl,2013-02-08 19:30:00,
2013-02-08 14:35:00,31.8,-99.9,29.76,NE,55,0.0,0.0,-999,0.00,,,-99.99,perl,2013-02-08 19:35:00,
2013-02-08 14:40:00,31.5,-99.9,29.76,NE,56,0.0,0.0,-999,0.00,,,-99.99,perl,2013-02-08 19:40:00,
2013-02-08 14:45:00,31.5,-99.9,29.76,NE,56,0.0,0.0,-999,0.00,,,-99.99,perl,2013-02-08 19:45:00,
2013-02-08 14:50:00,31.3,-99.9,29.76,NE,54,0.0,0.0,-999,0.00,,,-99.99,perl,2013-02-08 19:50:00,
2013-02-08 14:55:00,31.1,-99.9,29.76,NE,56,0.0,0.0,-999,0.00,,,-99.99,perl,2013-02-08 19:55:00,
2013-02-08 15:01:00,31.1,-99.9,29.73,NE,55,0.0,0.0,-999,0.00,,,-99.99,perl,2013-02-08 20:01:00,
2013-02-08 15:07:00,30.9,-99.9,29.73,NE,56,0.0,0.0,-999,0.00,,,-99.99,perl,2013-02-08 20:07:00,
2013-02-08 15:12:00,30.7,-99.9,29.73,NE,56,0.0,0.0,-999,0.00,,,-99.99,perl,2013-02-08 20:12:00,
2013-02-08 15:17:00,30.6,-99.9,29.73,NE,55,0.0,0.0,-999,0.00,,,-99.99,perl,2013-02-08 20:17:00,
2013-02-08 15:22:00,30.4,-99.9,29.73,NE,56,0.0,0.0,-999,0.00,,,-99.99,perl,2013-02-08 20:22:00,
2013-02-08 15:27:00,30.2,-99.9,29.73,NE,55,0.0,0.0,-999,0.00,,,-99.99,perl,2013-02-08 20:27:00,
2013-02-08 15:32:00,30.2,-99.9,29.73,NE,56,0.0,0.0,-999,0.00,,,-99.99,perl,2013-02-08 20:32:00,
2013-02-08 15:37:00,29.8,-99.9,29.73,NE,56,0.0,0.0,-999,0.00,,,-99.99,perl,2013-02-08 20:37:00,
2013-02-08 15:42:00,29.8,-99.9,29.73,NE,56,0.0,0.0,-999,0.00,,,-99.99,perl,2013-02-08 20:42:00,
2013-02-08 15:47:00,29.7,-99.9,29.73,NE,55,0.0,0.0,-999,0.00,,,-99.99,perl,2013-02-08 20:47:00,
2013-02-08 15:52:00,29.5,-99.9,29.73,NE,56,0.0,0.0,-999,0.00,,,-99.99,perl,2013-02-08 20:52:00,
2013-02-08 15:57:00,29.3,-99.9,29.73,NE,55,0.0,0.0,-999,0.00,,,-99.99,perl,2013-02-08 20:57:00,
2013-02-08 16:02:00,29.1,-99.9,29.73,NE,56,0.0,0.0,-999,0.00,,,-99.99,perl,2013-02-08 21:02:00,
2013-02-08 16:07:00,29.1,-99.9,29.73,NE,56,0.0,0.0,-999,0.00,,,-99.99,perl,2013-02-08 21:07:00,
2013-02-08 16:12:00,28.9,-99.9,29.73,NE,55,0.0,0.0,-999,0.00,,,-99.99,perl,2013-02-08 21:12:00,
2013-02-08 16:17:00,28.9,-99.9,29.73,NE,56,0.0,0.0,-999,0.00,,,-99.99,perl,2013-02-08 21:17:00,
2013-02-08 16:22:00,28.8,-99.9,29.73,NE,55,0.0,0.0,-999,0.00,,,-99.99,perl,2013-02-08 21:22:00,
2013-02-08 16:28:00,28.6,-99.9,29.73,NE,56,0.0,0.0,-999,0.00,,,-99.99,perl,2013-02-08 21:28:00,
2013-02-08 16:33:00,28.6,-99.9,29.73,NE,55,0.0,0.0,-999,0.00,,,-99.99,perl,2013-02-08 21:33:00,
2013-02-08 16:38:00,28.6,-99.9,29.73,NE,56,0.0,0.0,-999,0.00,,,-99.99,perl,2013-02-08 21:38:00,
2013-02-08 16:43:00,28.6,-99.9,29.73,NE,55,0.0,0.0,-999,0.00,,,-99.99,perl,2013-02-08 21:43:00,
2013-02-08 16:48:00,28.4,-99.9,29.73,NE,55,0.0,0.0,-999,0.00,,,-99.99,perl,2013-02-08 21:48:00,
2013-02-08 16:53:00,28.4,-99.9,29.73,NE,56,0.0,0.0,-999,0.00,,,-99.99,perl,2013-02-08 21:53:00,
2013-02-08 16:59:00,28.2,-99.9,29.73,NE,56,0.0,0.0,-999,0.00,,,-99.99,perl,2013-02-08 21:59:00,
2013-02-08 17:05:00,28.2,-99.9,29.73,NE,56,0.0,0.0,-999,0.00,,,-99.99,perl,2013-02-08 22:05:00,
2013-02-08 17:11:00,28.0,-99.9,29.73,NE,55,0.0,0.0,-999,0.00,,,-99.99,perl,2013-02-08 22:11:00,
2013-02-08 17:16:00,28.0,-99.9,29.76,NE,55,0.0,0.0,-999,0.00,,,-99.99,perl,2013-02-08 22:16:00,
2013-02-08 17:21:00,27.9,-99.9,29.76,NE,55,0.0,0.0,-999,0.00,,,-99.99,perl,2013-02-08 22:21:00,
2013-02-08 17:26:00,27.9,-99.9,29.76,NE,55,0.0,0.0,-999,0.00,,,-99.99,perl,2013-02-08 22:26:00,
2013-02-08 17:31:00,27.9,-99.9,29.76,NE,56,0.0,0.0,-999,0.00,,,-99.99,perl,2013-02-08 22:31:00,
2013-02-08 17:36:00,27.9,-99.9,29.76,NE,56,0.0,0.0,-999,0.00,,,-99.99,perl,2013-02-08 22:36:00,
2013-02-08 17:42:00,27.9,-99.9,29.76,NE,56,0.0,0.0,-999,0.00,,,-99.99,perl,2013-02-08 22:42:00,
2013-02-08 17:47:00,27.9,-99.9,29.76,NE,55,0.0,0.0,-999,0.00,,,-99.99,perl,2013-02-08 22:47:00,
2013-02-08 17:52:00,27.7,-99.9,29.76,NE,55,0.0,0.0,-999,0.00,,,-99.99,perl,2013-02-08 22:52:00,
2013-02-08 17:57:00,27.5,-99.9,29.76,NE,56,0.0,0.0,-999,0.00,,,-99.99,perl,2013-02-08 22:57:00,
2013-02-08 18:02:00,27.5,-99.9,29.79,NE,55,0.0,0.0,-999,0.00,,,-99.99,perl,2013-02-08 23:02:00,
2013-02-08 18:07:00,27.5,-99.9,29.79,NE,56,0.0,0.0,-999,0.00,,,-99.99,perl,2013-02-08 23:07:00,
2013-02-08 18:12:00,27.5,-99.9,29.79,NE,56,0.0,0.0,-999,0.00,,,-99.99,perl,2013-02-08 23:12:00,
2013-02-08 18:17:00,27.5,-99.9,29.79,NE,55,0.0,0.0,-999,0.00,,,-99.99,perl,2013-02-08 23:17:00,
2013-02-08 18:22:00,27.5,-99.9,29.79,NE,56,0.0,0.0,-999,0.00,,,-99.99,perl,2013-02-08 23:22:00,
2013-02-08 18:27:00,27.7,-99.9,29.79,NE,55,0.0,0.0,-999,0.00,,,-99.99,perl,2013-02-08 23:27:00,
2013-02-08 18:32:00,27.7,-99.9,29.79,NE,55,0.0,0.0,-999,0.00,,,-99.99,perl,2013-02-08 23:32:00,
2013-02-08 18:37:00,27.5,-99.9,29.79,NE,55,0.0,0.0,-999,0.00,,,-99.99,perl,2013-02-08 23:37:00,
2013-02-08 18:42:00,27.1,-99.9,29.79,NE,56,0.0,0.0,-999,0.00,,,-99.99,perl,2013-02-08 23:42:00,
2013-02-08 18:47:00,26.2,-99.9,29.82,NE,55,0.0,0.0,-999,0.00,,,-99.99,perl,2013-02-08 23:47:00,
2013-02-08 18:52:00,25.3,-99.9,29.82,NE,55,0.0,0.0,-999,0.00,,,-99.99,perl,2013-02-08 23:52:00,
2013-02-08 18:57:00,24.4,-99.9,29.82,NE,55,0.0,0.0,-999,0.00,,,-99.99,perl,2013-02-08 23:57:00,
2013-02-08 19:02:00,23.5,-99.9,29.85,NE,55,0.0,0.0,-999,0.00,,,-99.99,perl,2013-02-09 00:02:00,
2013-02-08 19:07:00,22.5,-99.9,29.85,NE,54,0.0,0.0,-999,0.00,,,-99.99,perl,2013-02-09 00:07:00,
2013-02-08 19:12:00,21.6,-99.9,29.85,NE,55,0.0,0.0,-999,0.00,,,-99.99,perl,2013-02-09 00:12:00,
2013-02-08 19:17:00,20.8,-99.9,29.85,NE,56,0.0,0.0,-999,0.00,,,-99.99,perl,2013-02-09 00:17:00,
2013-02-08 19:22:00,20.5,-99.9,29.85,NE,55,0.0,0.0,-999,0.00,,,-99.99,perl,2013-02-09 00:22:00,
2013-02-08 19:27:00,20.1,-99.9,29.85,NE,55,0.0,0.0,-999,0.00,,,-99.99,perl,2013-02-09 00:27:00,
2013-02-08 19:34:00,19.8,-99.9,29.88,NE,55,0.0,0.0,-999,0.00,,,-99.99,perl,2013-02-09 00:34:00,
2013-02-08 19:39:00,19.4,-99.9,29.88,NE,56,0.0,0.0,-999,0.00,,,-99.99,perl,2013-02-09 00:39:00,
2013-02-08 19:44:00,19.2,-99.9,29.88,NE,56,0.0,0.0,-999,0.00,,,-99.99,perl,2013-02-09 00:44:00,
2013-02-08 19:49:00,19.0,-99.9,29.88,NE,56,0.0,0.0,-999,0.00,,,-99.99,perl,2013-02-09 00:49:00,
2013-02-08 19:54:00,19.0,-99.9,29.88,NE,55,0.0,0.0,-999,0.00,,,-99.99,perl,2013-02-09 00:54:00,
2013-02-08 19:59:00,18.9,-99.9,29.91,NE,56,0.0,0.0,-999,0.00,,,-99.99,perl,2013-02-09 00:59:00,
2013-02-08 20:04:00,18.7,-99.9,29.91,NE,56,0.0,0.0,-999,0.00,,,-99.99,perl,2013-02-09 01:04:00,
2013-02-08 20:10:00,18.5,-99.9,29.91,NE,56,0.0,0.0,-999,0.00,,,-99.99,perl,2013-02-09 01:10:00,
2013-02-08 20:15:00,18.5,-99.9,29.91,NE,56,0.0,0.0,-999,0.00,,,-99.99,perl,2013-02-09 01:15:00,
2013-02-08 20:20:00,18.3,-99.9,29.91,NE,56,0.0,0.0,-999,0.00,,,-99.99,perl,2013-02-09 01:20:00,
2013-02-08 20:25:00,18.3,-99.9,29.91,NE,55,0.0,0.0,-999,0.00,,,-99.99,perl,2013-02-09 01:25:00,
2013-02-08 20:30:00,18.3,-99.9,29.94,NE,54,0.0,0.0,-999,0.00,,,-99.99,perl,2013-02-09 01:30:00,
2013-02-08 20:35:00,18.3,-99.9,29.94,NE,56,0.0,0.0,-999,0.00,,,-99.99,perl,2013-02-09 01:35:00,
2013-02-08 20:40:00,18.3,-99.9,29.94,NE,55,0.0,0.0,-999,0.00,,,-99.99,perl,2013-02-09 01:40:00,
2013-02-08 20:45:00,18.3,-99.9,29.94,NE,55,0.0,0.0,-999,0.00,,,-99.99,perl,2013-02-09 01:45:00,
2013-02-08 20:50:00,18.5,-99.9,29.94,NE,56,0.0,0.0,-999,0.00,,,-99.99,perl,2013-02-09 01:50:00,
2013-02-08 20:55:00,18.5,-99.9,29.94,NE,56,0.0,0.0,-999,0.00,,,-99.99,perl,2013-02-09 01:55:00,
2013-02-08 21:00:00,18.5,-99.9,29.97,NE,54,0.0,0.0,-999,0.00,,,-99.99,perl,2013-02-09 02:00:00,
2013-02-08 21:05:00,18.7,-99.9,29.97,NE,56,0.0,0.0,-999,0.00,,,-99.99,perl,2013-02-09 02:05:00,
2013-02-08 21:10:00,18.7,-99.9,29.97,NE,55,0.0,0.0,-999,0.00,,,-99.99,perl,2013-02-09 02:10:00,
2013-02-08 21:15:00,18.9,-99.9,29.97,NE,56,0.0,0.0,-999,0.00,,,-99.99,perl,2013-02-09 02:15:00,
2013-02-08 21:20:00,19.0,-99.9,29.97,NE,55,0.0,0.0,-999,0.00,,,-99.99,perl,2013-02-09 02:20:00,
2013-02-08 21:26:00,19.0,-99.9,29.97,NE,54,0.0,0.0,-999,0.00,,,-99.99,perl,2013-02-09 02:26:00,
2013-02-08 21:31:00,19.0,-99.9,29.97,NE,55,0.0,0.0,-999,0.00,,,-99.99,perl,2013-02-09 02:31:00,
2013-02-08 21:36:00,19.0,-99.9,29.97,NE,55,0.0,0.0,-999,0.00,,,-99.99,perl,2013-02-09 02:36:00,
2013-02-08 21:41:00,19.0,-99.9,29.97,NE,55,0.0,0.0,-999,0.00,,,-99.99,perl,2013-02-09 02:41:00,
2013-02-08 21:46:00,19.0,-99.9,30.00,NE,55,0.0,0.0,-999,0.00,,,-99.99,perl,2013-02-09 02:46:00,
2013-02-08 21:51:00,19.0,-99.9,30.00,NE,55,0.0,0.0,-999,0.00,,,-99.99,perl,2013-02-09 02:51:00,
2013-02-08 21:56:00,19.2,-99.9,30.00,NE,55,0.0,0.0,-999,0.00,,,-99.99,perl,2013-02-09 02:56:00,
2013-02-08 22:01:00,19.2,-99.9,30.00,NE,55,0.0,0.0,-999,0.00,,,-99.99,perl,2013-02-09 03:01:00,
2013-02-08 22:06:00,19.2,-99.9,30.00,NE,56,0.0,0.0,-999,0.00,,,-99.99,perl,2013-02-09 03:06:00,
2013-02-08 22:11:00,19.2,-99.9,30.00,NE,56,0.0,0.0,-999,0.00,,,-99.99,perl,2013-02-09 03:11:00,
2013-02-08 22:16:00,19.2,-99.9,30.00,NE,55,0.0,0.0,-999,0.00,,,-99.99,perl,2013-02-09 03:16:00,
2013-02-08 22:21:00,19.2,-99.9,30.00,NE,56,0.0,0.0,-999,0.00,,,-99.99,perl,2013-02-09 03:21:00,
2013-02-08 22:26:00,19.4,-99.9,30.00,NE,54,0.0,0.0,-999,0.00,,,-99.99,perl,2013-02-09 03:26:00,
2013-02-08 22:31:00,19.4,-99.9,30.00,NE,56,0.0,0.0,-999,0.00,,,-99.99,perl,2013-02-09 03:31:00,
2013-02-08 22:36:00,19.4,-99.9,30.00,NE,55,0.0,0.0,-999,0.00,,,-99.99,perl,2013-02-09 03:36:00,
2013-02-08 22:41:00,19.4,-99.9,30.00,NE,54,0.0,0.0,-999,0.00,,,-99.99,perl,2013-02-09 03:41:00,
2013-02-08 22:46:00,19.4,-99.9,30.03,NE,55,0.0,0.0,-999,0.00,,,-99.99,perl,2013-02-09 03:46:00,
2013-02-08 22:51:00,19.4,-99.9,30.03,NE,55,0.0,0.0,-999,0.00,,,-99.99,perl,2013-02-09 03:51:00,
2013-02-08 22:56:00,19.6,-99.9,30.03,NE,55,0.0,0.0,-999,0.00,,,-99.99,perl,2013-02-09 03:56:00,
2013-02-08 23:01:00,19.6,-99.9,30.03,NE,56,0.0,0.0,-999,0.00,,,-99.99,perl,2013-02-09 04:01:00,
2013-02-08 23:07:00,19.6,-99.9,30.03,NE,55,0.0,0.0,-999,0.00,,,-99.99,perl,2013-02-09 04:07:00,
2013-02-08 23:12:00,19.6,-99.9,30.03,NE,56,0.0,0.0,-999,0.00,,,-99.99,perl,2013-02-09 04:12:00,
2013-02-08 23:17:00,19.6,-99.9,30.03,NE,55,0.0,0.0,-999,0.00,,,-99.99,perl,2013-02-09 04:17:00,
2013-02-08 23:23:00,19.6,-99.9,30.03,NE,56,0.0,0.0,-999,0.00,,,-99.99,perl,2013-02-09 04:23:00,
2013-02-08 23:28:00,19.4,-99.9,30.03,NE,56,0.0,0.0,-999,0.00,,,-99.99,perl,2013-02-09 04:28:00,
2013-02-08 23:33:00,19.4,-99.9,30.03,NE,56,0.0,0.0,-999,0.00,,,-99.99,perl,2013-02-09 04:33:00,
2013-02-08 23:38:00,19.2,-99.9,30.03,NE,56,0.0,0.0,-999,0.00,,,-99.99,perl,2013-02-09 04:38:00,
2013-02-08 23:44:00,19.2,-99.9,30.06,NE,55,0.0,0.0,-999,0.00,,,-99.99,perl,2013-02-09 04:44:00,
2013-02-08 23:49:00,19.0,-99.9,30.06,NE,55,0.0,0.0,-999,0.00,,,-99.99,perl,2013-02-09 04:49:00,
2013-02-08 23:54:00,19.0,-99.9,30.06,NE,55,0.0,0.0,-999,0.00,,,-99.99,perl,2013-02-09 04:54:00,
2013-02-08 23:59:00,19.0,-99.9,30.03,NE,56,0.0,0.0,-999,0.00,,,-99.99,perl,2013-02-09 04:59:00,